Location: Waldport
(44.4270°N, 124.0680°W)
Time: 19:22:12
(UTC-07:00)

Meteor 1-26 Rocket - Visible Passes

Search period start: 02 September 2014 00:00
Search period end: 12 September 2014 00:00
Orbit: 823 x 913 km, 81.3° (Epoch: 01 September)

Date Brightness Start Highest point End Pass type
(mag) Time Alt. Az. Time Alt. Az. Time Alt. Az.
02 Sep 5.6 03:05:16 30° ESE 03:06:00 31° E 03:10:53 10° NNE visible
02 Sep 4.8 04:47:40 33° WSW 04:49:08 39° WNW 04:54:26 10° N visible
03 Sep 5.6 02:58:55 31° E 02:59:10 31° E 03:04:05 10° NNE visible
03 Sep 4.8 04:41:20 36° W 04:42:20 38° WNW 04:47:36 10° N visible
04 Sep 5.6 02:52:33 32° E 02:52:33 32° E 02:57:17 10° NNE visible
04 Sep 4.8 04:34:57 37° W 04:35:32 38° WNW 04:40:46 10° N visible
05 Sep 5.6 02:46:09 31° ENE 02:46:09 31° ENE 02:50:28 10° NNE visible
05 Sep 4.9 04:28:33 37° WNW 04:28:43 37° WNW 04:33:55 10° N visible
06 Sep 5.7 02:39:44 31° ENE 02:39:44 31° ENE 02:43:40 10° NNE visible
06 Sep 5.0 04:22:08 36° WNW 04:22:08 36° WNW 04:27:05 10° N visible
07 Sep 5.8 02:33:17 29° ENE 02:33:17 29° ENE 02:36:51 10° NNE visible
07 Sep 5.1 04:15:41 35° WNW 04:15:41 35° WNW 04:20:15 10° N visible
08 Sep 5.9 02:26:49 28° ENE 02:26:49 28° ENE 02:30:03 10° NNE visible
08 Sep 5.2 04:09:13 33° NW 04:09:13 33° NW 04:13:25 10° N visible
09 Sep 6.0 02:20:20 26° NE 02:20:20 26° NE 02:23:15 10° NNE visible
09 Sep 5.3 04:02:44 31° NW 04:02:44 31° NW 04:06:34 10° N visible
10 Sep 6.1 02:13:50 24° NE 02:13:50 24° NE 02:16:26 10° NNE visible
10 Sep 5.5 03:56:14 29° NW 03:56:14 29° NW 03:59:44 10° N visible
11 Sep 6.2 02:07:19 23° NE 02:07:19 23° NE 02:09:38 10° NNE visible
11 Sep 5.6 03:49:42 27° NW 03:49:42 27° NW 03:52:53 10° N visible
